Saturday, February 24, 2018, 10:49 PM EST
Back to Local

KMWN, Mount Washington

Location: Bretton Woods, NH, United States Lat: 44.267
Local Time: 10:49 PM EST ( 3:49 GMT) Lon: -71.3
Time Zone: US/Eastern Elev: 6263 ft

Show me the last for .
Show Coded

Time T Td Feel RH Dir Speed Gust Alt SLP Vis Weather Sky Remarks
2018-02-24 21:54 14 5 -8 66 300° 33 - - - 100 FEW150 FEW250 None
2018-02-24 20:56 14 5 -9 66 310° 39 - - - 100 FEW150 SCT250 None
2018-02-24 19:57 14 5 -11 66 310° 38 48 - - 100 SCT250 None
2018-02-24 18:56 14 5 -10 66 310° 45 - - - 100 BKN080 BKN150 Snow depth: 1"
6-hr Min Temp (7pm): 11.3°F
6-hr Max Temp (7pm): 16.0°F
2018-02-24 17:50 12 12 -13 100 290° 38 46 - - 0 FZFG BKN000 OVC020 None
2018-02-24 16:50 12 12 -15 100 290° 47 56 - - 0 FZFG VV001 None
2018-02-24 15:53 14 14 -12 100 290° 48 58 - - 0 FZFG VV000 None
2018-02-24 14:48 14 14 -14 100 290° 60 68 - - 0 FZFG VV000 None
2018-02-24 13:50 16 16 -11 100 290° 58 63 - - 0 FZFG VV000 None
2018-02-24 12:49 16 16 -11 100 290° 49 64 - - 0 FZFG VV000 Snow depth: 1"
6-hr Min Temp (1pm): 15.6°F
6-hr Max Temp (1pm): 18.0°F
2018-02-24 11:48 16 16 -12 100 290° 68 75 - - 0 FZFG VV000 None
2018-02-24 10:49 16 16 -13 100 290° 68 77 - - 0 FZFG VV000 None
2018-02-24 09:55 16 16 -13 100 290° 70 81 - - 0 FZFG VV001 None
2018-02-24 08:57 16 16 -13 100 280° 77 85 - - 0 FZFG VV001 None
2018-02-24 07:50 16 16 -14 100 290° 82 92 - - 0 FZFG VV000 Peak wind: 101 mph (88 kts) from 280° at 50 min
2018-02-24 06:53 18 18 -12 100 290° 87 96 - - 0 FZFG VV001 Peak wind: 109 mph (95 kts) from 290° at 13 min
24-hr Precip Total (7am): 0.30"
Snow depth: 1"
6-hr Min Temp (7am): 17.6°F
6-hr Max Temp (7am): 25.7°F
2018-02-24 05:53 19 19 -10 100 290° 94 105 - - 0 FZFG VV000 Peak wind: 109 mph (95 kts) from 290° at 50 min
2018-02-24 04:56 21 21 -6 100 280° 81 92 - - 0 FZFG VV000 Peak wind: 100 mph (87 kts) from 280° at 34 min
2018-02-24 03:52 23 23 -4 100 280° 82 98 - - 0 FZFG VV000 Peak wind: 101 mph (88 kts) from 290° at 34 min
2018-02-24 02:58 25 25 0 100 270° 79 87 - - 0 FZFG VV000 None
2018-02-24 01:58 25 25 0 100 280° 76 85 - - 0 FZFG VV000 None
2018-02-24 00:52 25 25 1 100 270° 67 71 - - 0 FZFG VV000 6-hr Precip Total (1am): 0.13"
Snow depth: 1"
6-hr Min Temp (1am): 24.1°F
6-hr Max Temp (1am): 28.6°F
2018-02-23 23:54 27 27 4 100 270° 68 75 - - 0 FZFG VV000 None
2018-02-23 22:59 27 27 3 100 270° 67 78 - - 0 FZFG VV000 None

Support USWX by starting your Amazon purchase here.